Home   Weather   Brampton   Past weeks

Flag for Canada Past Weather in Brampton, Ontario, Canada — Yesterday and Last 2 Weeks

Now
72 °F

Passing clouds.


Feels Like: 77 °F
Forecast: 63 / 89 °F
Wind: 2 mph from North

Location: Toronto Pearson International Airport

Current Time: Sep 23, 2017 at 12:06:23 am

Latest Report: Sep 22, 2017 at 11:00 pm


Visibility: 15 mi

Pressure: 30.11 "Hg

Humidity: 44%

Dew Point: 48 °F

Location of BramptonLocation

Past Weather in Brampton — Graph

°F

Brampton Temperature Yesterday

Maximum temperature yesterday: 81 °F (at 1:00 pm)
Minimum temperature yesterday: 63 °F (at 5:00 am)
Average temperature yesterday: 72 °F

High & Low Weather Summary for the Past Weeks

 TemperatureHumidityPressure
High81 °F (Sep 14, 5:00 pm)100% (Sep 18, 3:00 am)30.53 "Hg (Sep 18, 3:00 am)
Low46 °F (Sep 9, 4:00 am)25% (Sep 11, 4:00 pm)29.78 "Hg (Sep 13, 5:00 pm)
Average67 °F70%30.11 "Hg
* Reported Sep 7 10:00 pm — Sep 22 10:00 pm, Brampton. Weather by CustomWeather, © 2017

Note: Actual official high and low records may vary slightly from our data, if they occured in-between our weather recording intervals... More about our weather records

Advertising

Brampton Weather History for the Previous 24 Hours

Scroll right to see more
 ConditionsComfort  
Time TempWeatherWind HumidityBarometerVisibility
10:00 pm
Fri, Sep 22
72 °FPassing clouds.2 mph47%30.09 "Hg15 mi
9:00 pm72 °FPassing clouds.2 mph50%30.09 "Hg15 mi
8:00 pm73 °FPassing clouds.3 mph47%30.09 "Hg15 mi
7:00 pm73 °FPassing clouds.3 mph50%30.10 "Hg15 mi
6:00 pm77 °FPassing clouds.7 mph42%30.09 "Hg15 mi
5:00 pm79 °FPassing clouds.6 mph42%30.09 "Hg15 mi
4:00 pm79 °FPassing clouds.9 mph42%30.11 "Hg15 mi
3:00 pm81 °FScattered clouds.10 mph45%30.12 "Hg15 mi
2:00 pm81 °FPartly sunny.8 mph48%30.14 "Hg15 mi
1:00 pm81 °FScattered clouds.8 mph45%30.14 "Hg15 mi
12:00 pm79 °FPassing clouds.7 mph54%30.15 "Hg15 mi
11:00 am77 °FPassing clouds.5 mph57%30.15 "Hg15 mi
10:00 am75 °FPassing clouds.3 mph61%30.16 "Hg15 mi
9:00 am70 °FPassing clouds.No wind78%30.16 "Hg15 mi
8:00 am64 °FPassing clouds.No wind88%30.16 "Hg15 mi
7:00 am64 °FPassing clouds.3 mph83%30.15 "Hg15 mi
6:00 am63 °FClear.3 mph88%30.14 "Hg15 mi
5:00 am63 °FClear.2 mph88%30.13 "Hg15 mi
4:00 am66 °FClear.2 mph83%30.11 "Hg15 mi
3:00 am66 °FClear.3 mph83%30.12 "Hg15 mi
2:00 am68 °FPassing clouds.3 mph78%30.12 "Hg15 mi
1:00 am70 °FPassing clouds.No wind73%30.12 "Hg15 mi
12:00 am70 °FPassing clouds.2 mph73%30.12 "Hg15 mi
Weather by CustomWeather, © 2017

See weather overviewHow to use our weather pages